GEFSNE_850_meantemp_072.txt.gz
Temperature
13 13 14 14 14 15 15 16 16 17 18 17 16 15 15 15 15 15 15 16 16 16 16 16 16 16 16 16 16 16 16 16 16 16 16 16 16 16
12 12 13 13 14 14 14 14 15 16 17 17 16 15 15 15 15 15 15 15 15 15 16 16 16 16 16 16 16 16 16 16 16 16 16 16 16 16
11 11 12 12 13 13 13 14 14 14 15 16 15 15 14 14 14 15 14 14 14 15 15 15 15 15 15 15 15 16 16 16 16 16 16 16 16 16
10 11 11 11 12 12 12 13 13 13 14 14 15 14 14 14 14 14 14 14 14 14 14 15 15 15 15 15 15 15 15 15 16 16 16 16 16 16
10 10 10 10 11 11 12 12 12 13 13 13 14 14 14 14 14 13 13 13 13 14 14 14 14 14 14 15 15 15 15 15 15 15 15 15 15 15
10 10 10 10 10 10 11 11 12 12 12 13 13 13 13 13 13 13 13 13 13 13 13 13 13 14 14 14 14 14 15 15 15 15 15 15 15 15
9 9 9 10 10 10 10 11 11 11 12 12 13 13 13 13 13 13 13 12 12 12 12 12 13 13 13 13 14 14 14 14 14 14 14 14 14 14
9 9 9 9 9 9 10 10 10 10 11 12 12 13 13 13 13 12 12 12 12 12 12 12 12 12 12 12 13 13 13 13 13 13 14 13 13 13
9 9 9 10 9 9 9 9 10 10 10 11 11 12 12 12 12 12 12 12 12 12 11 11 11 11 11 12 12 12 12 13 13 13 13 13 13 13
9 9 9 9 9 9 9 9 9 10 10 10 11 11 12 12 12 12 12 12 12 11 11 11 10 10 11 11 11 11 12 12 12 12 12 12 12 12
8 9 9 9 9 8 8 9 9 9 10 10 10 11 11 11 12 12 11 11 11 11 11 10 10 10 10 10 11 11 11 11 11 11 11 11 11 11
8 8 8 8 8 8 8 8 9 9 10 10 10 10 11 11 11 12 12 11 11 10 10 10 10 10 9 9 10 10 10 10 10 10 10 10 10 10
8 9 9 8 8 8 8 8 8 9 9 9 10 10 10 11 11 11 11 11 12 11 11 10 10 10 10 9 8 9 9 9 9 9 9 9 9 9
8 8 9 8 8 8 8 8 8 8 9 9 10 10 10 11 11 11 11 11 11 12 12 12 11 11 10 9 8 8 8 8 8 8 9 9 9 9
8 8 8 8 8 8 8 8 8 8 8 9 10 10 10 11 11 11 11 11 11 11 11 11 11 11 11 10 9 8 8 8 8 8 8 8 8 8
7 7 7 8 7 7 7 8 8 8 8 9 9 10 10 10 10 10 10 10 10 10 10 10 11 11 11 10 10 9 9 8 8 8 8 8 8 8
7 7 7 7 7 7 7 7 7 8 8 8 9 9 10 10 10 10 10 10 10 10 9 9 10 10 10 10 10 10 9 9 8 8 8 8 8 8
7 7 7 7 7 7 7 7 8 8 8 8 9 9 9 10 10 10 10 10 10 10 9 9 9 9 9 9 10 10 9 9 9 8 8 8 8 8
6 7 7 7 7 7 8 8 8 8 8 8 8 9 9 9 10 10 10 10 9 9 9 9 10 10 10 10 9 9 9 9 9 8 8 9 9 8
6 6 7 7 7 7 7 8 8 8 8 8 8 9 9 9 9 9 9 9 9 10 9 10 10 10 11 10 10 9 9 9 9 9 9 9 9 9
6 7 7 7 7 7 7 7 7 8 8 8 8 8 9 9 9 9 9 9 9 9 9 10 10 10 10 10 10 9 9 9 9 9 9 9 9 9
7 7 7 7 7 7 7 7 7 7 8 8 8 8 8 9 9 9 9 9 9 10 10 10 9 10 10 10 10 10 9 9 9 9 9 10 10 10
6 7 7 7 7 7 7 7 7 7 7 8 8 8 8 9 9 9 9 9 10 10 10 9 10 10 10 11 11 10 9 9 9 9 9 9 10 10

GEFSNE_850_meantemp_078.txt.gz
Temperature
13 13 14 14 15 16 16 17 17 17 17 18 18 17 17 17 17 17 17 17 17 17 17 17 17 17 17 17 16 16 16 16 16 16 16 16 16 17
12 13 13 13 14 15 15 16 16 17 17 17 17 17 17 17 17 16 16 16 16 16 16 16 16 17 16 16 16 16 16 16 16 16 16 16 16 16
12 12 12 13 13 14 14 15 15 16 16 17 17 16 16 16 16 16 16 16 16 16 16 16 16 16 16 16 16 16 16 16 16 16 16 16 16 16
11 11 12 12 12 13 13 14 14 15 15 16 16 15 16 15 16 15 15 15 16 15 15 16 16 16 16 16 16 16 16 16 16 16 16 16 16 16
11 11 11 11 11 12 12 13 13 14 14 14 15 15 15 15 15 15 14 15 15 15 15 15 15 15 15 15 16 16 16 16 16 16 16 16 16 16
11 11 11 11 11 11 11 12 12 13 13 13 14 14 14 14 14 14 14 14 14 14 14 14 14 15 15 15 15 15 15 16 16 16 15 15 15 15
10 10 10 11 11 11 11 11 11 12 12 13 13 13 13 14 14 14 14 14 13 13 13 14 14 14 14 14 15 15 15 15 15 15 15 15 15 15
10 10 10 10 10 10 11 11 11 11 11 12 12 13 13 13 14 13 13 13 13 13 13 13 13 13 14 14 14 14 14 14 14 14 14 14 14 14
9 10 10 10 10 10 10 10 10 11 11 11 12 12 12 13 13 13 13 13 13 13 12 12 12 12 13 13 13 13 14 14 14 14 14 14 14 14
9 9 9 10 10 10 10 10 10 10 11 11 11 12 12 12 13 13 13 13 13 13 12 12 11 12 12 12 13 13 13 13 13 13 13 13 13 13
8 9 9 9 10 10 10 10 10 10 10 11 11 11 11 12 12 12 12 12 12 12 12 12 11 11 11 11 12 12 12 12 12 12 12 12 12 12
8 8 9 9 9 9 10 10 9 10 10 10 10 11 11 11 12 12 12 12 12 12 12 12 11 11 10 11 11 11 11 11 11 11 11 12 12 12
7 8 8 9 9 9 9 9 9 9 9 10 10 10 10 11 11 12 12 12 12 12 12 12 11 11 11 10 10 11 11 11 11 11 11 11 11 11
7 8 8 9 9 9 9 9 9 9 9 9 9 10 10 10 11 11 11 12 12 12 13 12 12 12 12 11 10 10 10 10 11 11 10 10 10 10
7 7 8 8 9 9 9 9 9 9 9 9 9 10 10 11 11 11 11 11 11 11 12 12 12 12 12 12 11 11 10 10 10 10 10 10 10 10
7 7 7 8 8 8 9 9 9 8 8 8 9 10 10 10 11 11 11 11 11 11 11 11 11 12 11 11 11 11 11 10 10 10 10 10 9 9
7 7 7 7 8 8 8 8 8 8 8 8 9 9 10 10 10 10 11 11 11 11 11 11 11 11 11 11 11 10 10 10 10 9 9 9 9 9
7 7 7 7 8 8 8 8 8 8 8 8 9 9 9 10 10 10 10 10 11 10 11 11 10 10 10 10 10 10 10 10 9 9 9 9 9 9
7 7 7 7 8 8 8 8 8 8 8 8 9 9 9 10 10 10 10 10 10 10 10 10 10 10 10 10 10 10 10 10 9 9 9 9 9 9
7 7 7 7 8 8 8 8 9 9 8 9 9 9 9 9 9 10 10 10 10 10 10 10 10 10 10 10 10 10 10 10 10 9 9 9 9 9
7 7 7 8 8 8 8 8 9 9 9 9 9 9 9 9 9 10 10 10 10 10 10 10 10 10 10 10 10 10 10 10 10 10 9 9 9 9
7 7 7 8 8 8 8 8 8 8 8 9 9 9 9 9 9 9 9 9 10 10 10 10 10 10 10 10 10 10 10 10 9 9 10 10 10 10
7 7 7 8 8 8 8 8 8 8 8 8 8 9 9 9 9 9 9 9 9 9 10 10 10 10 10 10 10 10 10 10 9 9 9 10 10 10

GEFSNE_850_meantemp_084.txt.gz
Temperature
12 12 12 13 13 13 13 14 14 15 15 16 17 17 17 17 17 17 17 17 16 16 16 17 16 16 16 16 16 16 16 16 16 16 16 16 16 16
12 12 12 12 12 12 13 13 14 14 14 15 16 16 16 16 16 16 16 16 16 16 16 16 16 16 16 16 16 16 16 16 16 16 16 16 16 16
11 11 11 11 12 12 12 12 13 13 14 15 15 15 16 16 16 16 16 16 16 16 16 16 16 16 16 16 16 16 16 16 16 16 16 16 16 16
11 11 11 11 11 11 12 12 12 13 13 14 15 15 15 16 16 16 16 16 16 16 16 16 16 16 16 16 16 16 16 16 16 16 16 16 16 16
10 10 11 11 11 11 11 11 12 12 13 13 14 14 14 15 15 15 15 15 15 15 15 15 15 15 15 16 16 16 16 16 16 16 16 16 16 16
10 10 10 10 10 11 11 11 11 12 12 12 13 13 14 14 14 14 14 14 14 15 15 15 15 15 15 15 15 15 16 16 16 16 16 16 16 16
9 10 10 10 10 10 10 11 11 11 11 12 12 12 13 13 14 14 14 14 14 14 14 14 14 15 15 15 15 15 15 15 15 16 16 16 16 16
9 9 9 10 10 10 10 10 10 11 11 11 11 12 12 13 13 13 13 13 13 13 14 14 14 14 14 14 14 15 15 15 15 15 15 15 15 15
8 9 9 9 9 9 10 10 10 10 10 10 11 11 11 12 12 12 13 13 14 14 14 13 13 13 13 14 14 14 14 15 15 14 15 15 15 15
8 8 8 9 9 9 9 10 10 10 10 10 10 11 11 11 12 12 13 13 13 13 13 13 13 13 13 13 13 13 13 14 14 14 14 14 14 14
8 8 8 8 9 9 9 9 9 10 10 10 10 10 10 11 11 11 11 12 12 12 12 12 13 12 12 12 12 12 13 13 13 13 13 13 13 13
7 7 8 8 8 8 8 9 9 9 10 9 10 10 10 10 10 11 11 12 12 11 11 12 12 12 11 12 12 12 12 12 12 12 12 12 12 12
7 7 7 7 8 8 8 8 9 9 9 9 9 9 10 10 10 10 11 11 12 12 12 12 12 12 12 12 11 11 12 12 12 12 12 12 12 12
7 7 7 7 7 7 8 8 9 9 9 9 9 9 9 10 10 10 11 11 11 12 12 12 12 12 12 12 11 11 11 11 11 11 11 11 11 11
6 7 7 7 7 7 8 8 8 8 9 9 9 9 9 9 10 10 10 10 11 11 11 12 12 12 12 13 12 12 11 11 11 11 11 11 11 11
6 6 6 6 7 7 8 8 8 8 9 9 9 9 9 9 9 10 10 10 10 10 11 11 11 12 12 12 12 12 12 11 11 11 10 10 10 10
6 6 6 6 7 7 7 8 8 8 8 8 9 9 9 9 9 9 10 10 10 10 10 11 11 11 11 11 11 11 11 11 11 11 10 10 10 10
6 6 6 6 7 7 7 8 8 8 8 8 9 9 9 9 9 9 9 10 10 10 10 10 10 10 10 10 10 11 11 11 11 11 10 10 10 10
6 6 6 6 7 7 7 7 8 8 8 8 8 8 8 9 9 9 9 9 10 10 10 10 10 10 10 10 10 10 11 11 11 10 10 10 10 10
6 6 6 7 7 7 7 7 8 8 8 8 8 8 8 8 8 9 9 9 9 10 10 10 10 10 10 11 11 10 10 11 11 10 10 10 9 9
6 6 7 7 7 7 7 7 8 8 8 8 8 8 8 8 8 9 9 9 9 9 9 10 10 10 10 10 10 10 10 10 10 11 10 9 9 9
7 7 7 7 7 7 7 8 8 8 8 8 8 8 8 8 8 9 9 9 9 9 10 10 10 9 9 10 10 10 10 10 9 9 10 10 10 10
7 7 7 7 7 7 7 8 8 8 8 8 8 8 8 8 8 8 9 9 9 9 9 9 9 9 9 9 10 10 10 9 9 9 9 9 9 10

GEFSNE_850_meantemp_090.txt.gz
Temperature
11 11 11 11 11 12 12 12 12 12 13 14 15 15 15 16 16 16 16 16 16 17 16 16 16 16 16 16 16 16 16 16 16 16 16 16 16 16
11 11 11 11 11 11 11 11 12 12 12 13 14 15 15 15 16 16 16 16 16 16 16 16 16 16 16 16 16 16 16 16 16 16 16 16 16 16
10 10 11 11 11 11 11 11 11 11 12 13 13 14 14 15 15 15 16 16 16 16 16 16 16 16 16 16 16 16 16 16 16 16 16 16 16 16
10 10 10 10 10 10 11 11 11 11 11 12 13 13 14 14 15 15 15 15 15 16 16 16 16 16 16 16 16 16 16 16 16 16 16 16 16 16
9 9 9 10 10 10 10 10 11 11 11 11 12 13 13 14 14 15 15 15 15 15 15 15 15 15 15 15 16 16 16 16 16 16 16 16 16 16
9 9 9 9 9 10 10 10 10 10 11 11 11 12 12 13 13 14 14 14 15 15 15 15 15 15 15 15 15 15 15 15 15 16 16 16 16 16
8 8 9 9 9 9 9 10 10 10 10 10 11 11 12 12 13 13 13 14 14 14 14 14 14 14 15 15 15 15 15 15 15 15 15 16 16 16
8 8 8 8 9 9 9 9 10 10 10 10 10 11 11 12 12 12 13 13 13 13 13 14 14 14 14 14 15 15 15 15 15 15 15 15 15 15
8 8 8 8 8 8 9 9 9 9 10 10 10 10 11 11 11 12 12 13 13 13 13 13 13 13 13 14 14 14 14 15 15 15 15 15 15 15
8 8 8 8 8 8 8 8 9 9 9 9 10 10 10 11 11 11 12 12 12 12 12 13 12 13 13 13 13 14 14 14 14 14 14 14 15 15
7 7 7 7 8 8 8 8 8 9 9 9 9 10 10 10 10 11 11 11 11 11 12 12 12 12 12 12 13 13 13 13 14 14 14 14 14 14
7 7 7 7 7 7 7 8 8 8 9 9 9 9 10 10 10 10 11 11 11 11 11 11 11 11 11 11 12 12 13 13 13 13 13 13 13 13
7 7 7 7 7 7 7 7 8 8 8 9 9 9 9 9 10 10 10 10 11 11 11 11 11 11 11 11 11 11 12 12 12 12 12 12 12 12
6 7 7 7 7 7 7 7 7 8 8 8 8 9 9 9 9 10 10 10 10 11 11 11 12 12 12 11 11 11 11 11 12 12 12 12 12 12
6 6 6 6 6 6 7 7 7 7 7 8 8 9 9 9 9 9 9 9 10 10 10 11 11 12 12 12 12 12 11 11 11 11 12 12 12 12
6 6 6 6 6 6 6 7 7 7 7 8 8 8 9 9 9 9 9 9 9 10 10 10 11 11 11 11 12 12 12 12 11 11 11 11 11 11
6 6 6 6 6 6 6 6 7 7 7 7 8 8 8 8 9 9 9 9 9 9 10 10 10 10 11 11 11 12 12 12 12 12 11 11 11 11
6 6 6 6 6 6 6 6 7 7 7 7 8 8 8 8 8 9 9 9 9 9 9 9 10 10 10 10 10 11 11 11 11 11 11 11 11 11
6 6 6 6 6 6 6 6 7 7 7 7 8 8 8 8 8 8 8 9 9 9 9 9 9 9 9 9 10 10 11 11 11 11 11 11 11 11
6 6 6 6 6 6 6 6 7 7 7 7 7 8 8 8 8 8 8 9 9 9 9 9 9 10 10 10 10 10 10 11 11 11 10 10 10 10
6 6 6 6 6 6 6 7 7 7 7 7 7 8 8 8 8 8 8 9 9 9 9 9 9 9 9 9 10 10 10 10 10 10 10 10 10 9
6 6 6 6 6 6 7 7 7 7 7 7 7 8 8 8 8 8 8 8 9 9 9 9 9 9 9 9 9 10 10 9 9 9 10 10 10 10
7 6 6 6 6 6 7 7 7 7 7 7 7 8 8 8 8 8 8 8 8 8 9 9 9 9 9 9 9 9 9 9 9 9 9 9 9 9

GEFSNE_850_meantemp_096.txt.gz
Temperature
11 11 11 12 12 12 12 12 13 13 14 14 14 14 14 14 15 15 15 16 16 16 16 16 16 17 17 17 17 17 17 17 17 17 16 16 16 16
10 10 11 11 12 12 12 12 12 12 13 14 14 14 14 14 14 15 15 15 16 16 16 16 16 16 16 16 17 17 17 17 17 17 16 16 16 16
10 10 10 10 11 11 12 12 12 12 12 13 13 13 13 13 14 14 15 15 15 15 16 16 16 16 16 16 16 16 16 17 16 16 16 16 16 16
9 10 10 10 10 10 11 11 11 11 11 12 12 13 13 13 13 14 14 14 15 15 15 16 16 16 16 16 16 16 16 16 16 16 16 16 16 16
9 9 9 9 10 10 10 11 11 11 11 11 12 12 12 13 13 13 14 14 14 15 15 15 16 16 16 16 16 16 16 16 16 16 16 16 16 16
8 9 9 9 9 9 10 10 10 11 11 11 12 12 12 12 13 13 13 14 14 14 15 15 15 15 15 16 16 16 16 16 16 16 16 16 16 16
8 8 8 9 9 9 9 10 10 10 11 11 11 12 12 12 12 13 13 13 13 14 14 15 15 15 15 15 15 15 15 16 16 16 16 16 16 16
8 8 8 8 9 9 9 9 9 9 10 10 11 11 12 12 12 12 12 13 13 13 13 14 14 14 15 15 15 15 15 15 16 16 16 16 16 16
8 8 8 9 8 8 9 9 9 9 9 9 10 10 11 11 11 12 12 12 13 13 13 13 13 13 14 14 15 15 15 15 15 15 15 15 16 16
8 8 8 8 8 8 8 8 8 9 9 9 9 10 10 11 11 11 11 12 12 12 12 12 12 13 13 13 14 14 14 15 15 15 15 15 15 15
8 8 8 8 8 8 8 8 8 8 9 9 9 9 10 10 10 11 11 11 11 12 12 12 12 12 12 13 13 13 14 14 14 14 15 15 15 15
8 8 8 8 8 7 7 7 8 8 8 9 9 9 9 10 10 10 11 11 11 11 12 12 12 12 11 12 12 13 13 13 14 14 14 14 14 14
8 8 8 8 8 7 7 7 7 8 8 8 9 9 9 9 10 10 10 11 11 11 11 11 12 11 11 11 11 12 12 12 13 13 13 13 13 13
7 7 7 7 7 7 7 7 7 7 7 8 8 9 9 9 10 10 10 10 11 11 11 12 11 12 12 11 11 11 11 12 12 12 12 12 13 13
7 7 7 7 7 7 7 7 7 7 7 8 8 9 9 9 9 10 10 10 10 10 11 11 11 11 12 12 11 11 11 11 11 11 12 12 12 12
7 7 7 7 7 7 7 7 7 7 7 7 8 8 9 9 9 9 9 10 10 10 10 10 11 11 11 11 12 11 11 11 11 11 11 11 11 12
7 7 6 6 6 6 7 7 7 7 7 7 8 8 8 9 9 9 9 9 9 10 10 10 10 10 11 11 11 11 11 10 11 11 11 11 11 11
6 6 7 7 7 7 7 7 7 7 7 7 7 8 8 8 9 9 9 9 10 10 10 10 10 10 10 10 10 11 10 10 10 10 11 10 10 11
6 6 7 7 7 7 7 7 7 7 7 7 7 8 8 8 8 9 9 9 9 9 9 9 9 10 10 10 10 10 10 10 10 10 10 10 10 10
7 7 7 7 7 7 7 7 7 7 7 7 7 7 8 8 8 8 9 9 9 9 9 9 9 9 10 10 10 10 10 10 10 10 10 10 10 10
7 7 7 7 7 7 7 7 7 7 7 7 7 7 8 8 8 8 9 9 9 9 9 9 9 9 10 10 10 10 10 10 10 10 10 10 9 9
7 7 7 7 7 7 7 7 7 7 7 7 7 7 8 8 8 8 9 9 9 9 9 9 9 9 9 9 9 10 9 9 9 9 9 10 10 9
7 7 7 7 7 7 7 7 7 7 7 7 8 8 8 8 8 8 9 9 9 9 9 9 9 9 9 9 9 9 9 9 9 8 8 9 9 10

GEFSNE_850_meantemp_102.txt.gz
Temperature
11 12 12 12 12 13 13 13 13 13 14 14 15 15 15 15 15 15 15 15 15 15 16 16 16 16 16 16 16 16 17 17 17 17 17 17 17 17
11 11 11 12 12 12 12 13 13 13 13 14 14 14 14 14 14 14 15 15 15 15 15 16 16 16 16 16 16 16 17 17 17 17 17 17 17 17
11 11 11 11 11 11 12 12 12 12 12 13 13 14 14 14 14 14 14 14 15 15 15 15 16 16 16 16 16 16 16 16 16 16 17 16 16 16
10 10 11 11 11 11 11 11 11 12 12 12 12 13 13 13 13 14 14 14 14 15 15 15 15 15 16 16 16 16 16 16 16 16 16 16 16 16
10 10 10 10 10 10 11 11 11 11 11 12 12 12 13 13 13 13 13 14 14 14 14 15 15 15 16 16 16 16 16 16 16 16 16 16 16 16
10 10 10 10 10 10 10 10 10 11 11 11 11 12 12 12 13 13 13 13 14 14 14 14 15 15 15 15 16 16 16 16 16 16 16 16 16 16
10 9 9 10 10 10 10 10 10 10 10 10 11 11 12 12 12 13 13 13 13 14 14 14 14 14 15 15 15 16 16 16 16 16 16 16 16 16
10 9 9 9 10 10 10 10 10 10 10 10 10 10 11 11 12 12 12 12 13 13 13 14 14 14 14 15 15 15 16 16 16 16 16 16 16 16
9 9 9 9 9 9 10 9 10 10 10 10 10 10 11 11 11 11 11 12 12 13 13 13 13 13 14 14 15 15 15 15 15 16 16 16 16 16
9 9 9 9 9 9 9 9 9 9 9 9 10 10 10 11 11 11 11 11 11 12 12 12 13 13 13 14 14 14 15 15 15 15 15 15 15 15
9 9 9 9 9 9 9 9 9 9 9 9 9 10 10 10 10 10 10 10 11 11 12 12 12 12 13 13 14 14 14 15 15 15 15 15 15 15
9 9 9 9 9 9 9 9 9 9 9 9 9 9 9 10 10 10 10 10 10 11 11 12 12 12 12 12 13 13 14 14 14 14 15 15 15 15
8 8 8 9 8 8 8 8 8 8 8 8 9 9 9 9 10 10 10 10 10 10 11 11 12 12 12 12 12 13 13 14 14 14 14 14 14 14
9 8 8 8 8 8 8 8 8 8 8 8 8 8 9 9 10 10 10 10 10 11 11 11 11 11 12 12 12 12 12 13 13 13 13 13 13 14
8 8 8 8 8 8 8 8 8 8 8 8 8 8 9 9 9 10 10 10 10 10 11 11 11 11 12 12 12 12 12 12 12 12 13 13 13 13
8 8 8 8 8 8 8 8 8 8 8 8 8 8 8 9 9 9 10 10 10 10 10 11 11 11 11 11 12 12 12 12 12 12 12 12 12 12
8 8 8 8 8 8 8 8 8 8 8 8 8 8 8 8 9 9 9 10 10 10 10 10 10 11 11 11 11 11 12 11 12 12 12 12 12 12
8 8 8 8 8 8 8 8 8 8 8 8 8 8 8 8 9 9 9 9 9 10 10 10 10 10 10 10 11 11 11 11 11 11 11 11 11 11
8 8 8 8 8 8 8 8 8 8 8 8 8 8 8 8 8 9 9 9 9 10 10 10 10 10 10 10 10 11 11 11 11 11 11 11 11 11
9 8 8 8 8 8 8 8 8 8 8 8 8 8 8 8 8 8 9 9 9 9 9 10 10 10 10 10 10 10 10 11 11 11 10 10 11 11
9 9 9 8 8 8 8 8 8 8 8 8 8 8 8 8 8 8 9 9 9 9 9 10 10 10 10 10 10 10 10 10 11 11 11 10 10 10
9 9 9 9 9 8 8 8 8 8 8 8 8 8 8 8 8 8 9 9 9 9 9 10 10 10 10 10 10 10 10 10 10 10 10 10 10 10
9 9 9 9 9 8 8 8 8 8 8 8 8 8 8 8 8 9 9 9 9 9 9 9 10 10 10 10 10 10 10 9 9 9 9 10 10 10

GEFSNE_850_meantemp_108.txt.gz
Temperature
11 11 11 11 11 11 11 11 11 11 12 13 13 14 14 14 14 14 14 14 15 15 15 15 15 15 15 15 16 16 16 16 16 16 16 16 17 17
11 11 11 11 11 11 11 11 11 11 11 12 12 13 13 13 13 13 14 14 14 14 14 15 15 15 15 15 15 15 16 16 16 16 16 16 16 16
10 10 10 10 10 11 11 11 11 11 11 11 12 12 13 13 13 13 13 13 14 14 14 14 15 15 15 15 15 15 15 16 16 16 16 16 16 16
10 10 10 10 10 10 10 10 10 10 10 11 11 12 12 12 12 13 13 13 13 14 14 14 14 14 15 15 15 15 15 15 15 16 16 16 16 16
10 10 10 10 10 10 10 10 10 10 10 10 11 11 11 12 12 12 12 12 13 13 13 14 14 14 14 14 15 15 15 15 15 15 16 16 16 16
10 10 10 10 10 10 10 10 10 10 10 10 10 10 11 11 11 11 12 12 12 13 13 13 13 14 14 14 14 14 15 15 15 15 15 15 16 16
10 10 10 10 10 9 9 9 9 9 9 9 10 10 10 10 11 11 11 12 12 12 12 13 13 13 14 14 14 14 14 15 15 15 15 15 15 15
10 10 10 10 9 9 9 9 9 9 9 9 9 9 10 10 10 10 10 11 11 12 12 12 12 13 13 13 14 14 14 14 14 15 15 15 15 15
10 10 10 10 9 9 9 9 9 9 9 9 9 9 9 10 10 10 10 10 11 11 11 12 12 12 13 13 13 14 14 14 14 15 15 15 15 15
10 10 10 9 9 9 9 9 9 9 9 9 9 9 9 9 9 9 9 10 10 11 11 11 12 12 13 13 13 13 14 14 14 14 15 15 15 15
10 10 9 9 9 9 9 9 9 9 9 9 9 9 9 9 9 9 9 9 10 10 11 10 11 12 12 13 13 13 13 13 14 14 14 14 15 15
10 10 9 9 9 9 8 8 8 9 8 8 8 9 9 9 9 9 9 9 9 9 11 11 11 11 11 12 12 13 13 13 13 13 14 14 14 14
10 10 10 9 9 8 8 8 8 8 8 8 8 8 9 9 9 9 9 9 9 9 10 10 10 11 11 11 12 12 12 12 13 13 13 13 14 14
10 10 10 9 9 8 8 8 8 8 8 8 8 8 8 9 9 9 9 9 9 9 9 10 10 10 10 10 11 11 12 12 12 12 13 13 13 13
10 10 9 9 9 9 8 8 8 8 8 8 8 8 8 8 8 8 9 9 9 9 9 9 9 10 10 10 10 11 11 11 11 12 12 12 12 13
10 10 9 9 9 9 8 8 8 8 8 8 8 8 8 8 8 8 8 9 9 9 9 9 9 9 10 10 10 10 11 11 11 11 12 12 12 12
10 9 9 9 9 9 9 8 8 8 8 8 8 8 8 8 8 8 8 8 8 9 9 9 9 9 10 10 10 10 10 11 11 11 11 11 11 11
10 9 9 9 9 9 9 8 8 8 8 8 8 8 8 8 8 8 8 8 8 8 9 9 9 9 9 9 10 10 10 10 11 11 11 11 11 11
10 9 9 9 9 9 8 8 8 8 8 8 8 8 8 8 8 8 8 8 8 8 9 9 9 9 9 9 10 10 10 10 10 10 10 11 11 11
10 9 9 9 9 9 9 8 8 8 8 8 8 8 8 8 8 8 8 8 8 8 8 9 9 9 9 9 9 10 10 10 10 10 10 10 11 11
10 9 9 9 9 9 8 8 8 8 8 8 8 8 8 8 8 8 8 8 8 8 8 9 9 9 9 9 9 9 10 10 10 10 10 10 10 10
9 9 9 9 9 9 9 8 8 8 8 8 8 8 8 8 8 8 8 8 8 8 8 9 9 9 9 9 9 9 9 10 10 10 10 10 10 10
9 9 9 9 9 9 9 8 8 8 8 8 8 8 8 8 8 8 8 8 8 8 8 8 8 8 9 9 9 9 9 9 9 9 9 10 10 10